This is the latest recevied weather packets stored in our database for station/object DL6DJ-15. If no packets are shown the sender has not sent any weather packets the latest 1 day(s).
| Time | Temp. | Humidity | Pressure | Rain* | Wind** | Luminosity | Snow |
|---|---|---|---|---|---|---|---|
| 1778077696 | 22.22° C | 36% | 1005.7 hPa | - | - | - | - |
| 1778076194 | 22.78° C | 37% | 1005.7 hPa | - | - | - | - |
| 1778073791 | 22.22° C | 37% | 1006.2 hPa | - | - | - | - |
| 1778073190 | 23.33° C | 35% | 1006.2 hPa | - | - | - | - |
| 1778072890 | 22.78° C | 37% | 1006.2 hPa | - | - | - | - |
| 1778071688 | 23.89° C | 35% | 1006.4 hPa | - | - | - | - |
| 1778070186 | 23.33° C | 33% | 1006.5 hPa | - | - | - | - |
| 1778069886 | 23.33° C | 35% | 1006.6 hPa | - | - | - | - |
| 1778068083 | 23.33° C | 38% | 1007.1 hPa | - | - | - | - |
| 1778065981 | 22.22° C | 40% | 1007.6 hPa | - | - | - | - |
| 1778065080 | 21.11° C | 45% | 1007.6 hPa | - | - | - | - |
| 1778064479 | 21.11° C | 42% | 1007.8 hPa | - | - | - | - |
| 1778063578 | 21.67° C | 41% | 1007.9 hPa | - | - | - | - |
| 1778062677 | 22.22° C | 42% | 1007.9 hPa | - | - | - | - |
| 1778062376 | 21.67° C | 42% | 1008 hPa | - | - | - | - |
| 1778061175 | 21.67° C | 44% | 1007.9 hPa | - | - | - | - |
| 1778060875 | 21.67° C | 43% | 1007.9 hPa | - | - | - | - |
| 1778060574 | 21.67° C | 42% | 1008 hPa | - | - | - | - |
| 1778059974 | 21.11° C | 45% | 1008 hPa | - | - | - | - |
| 1778059673 | 21.67° C | 45% | 1008.1 hPa | - | - | - | - |
| 1778059373 | 21.67° C | 44% | 1008 hPa | - | - | - | - |
| 1778059073 | 21.67° C | 40% | 1008.1 hPa | - | - | - | - |
| 1778057872 | 25.56° C | 33% | 1008.1 hPa | - | - | - | - |
| 1778057571 | 26.11° C | 34% | 1008.1 hPa | - | - | - | - |
| 1778056670 | 25° C | 36% | 1008 hPa | - | - | - | - |
* Rain since midnight (hover to see other rain measurements)
** Current wind speed in m/s (hover to see current wind gust speed)